Bangkok (Don Mueang), Thailand

3:25 AM +07 on June 29, 2017 (GMT +0700)
Bangkok International

Weather History for VTBD - November, 2013

Change the Weather History Date:

Wednesday, November 6, 2013

  Actual Average Record
Temperature  
Mean Temperature 87 °F -  
Max Temperature 94 °F 88 °F 95 °F (1996)
Min Temperature 80 °F 73 °F 64 °F (2000)
Cooling Degree Days 22    
Growing Degree Days 37 (Base 50)    
Moisture  
Dew Point 70 °F    
Average Humidity 58    
Maximum Humidity 70    
Minimum Humidity 40    
Precipitation  
Precipitation 0.00 in 0.04 in - ()
Sea Level Pressure  
Sea Level Pressure 29.85 in    
Wind  
Wind Speed 9 mph ()    
Max Wind Speed 16 mph    
Max Gust Speed -    
Visibility 6.0 miles    
Events Rain    
Averages and records for this station are not official NWS values.
T = Trace of Precipitation, MM = Missing Value Source: Averaged Metar Reports

Daily Weather History Graph

Daily Weather History Graph

Search for Another Location

Airport or City:

Trip Planner

Search our weather history database for the weather conditions in past years. The results will help you decide how hot, cold, wet, or windy it might be!

Date:

Astronomy

Nov. 06, 2013 Rise Set
Actual Time 6:13 AM +07 5:48 PM +07
Civil Twilight 5:51 AM +07 6:10 PM +07
Nautical Twilight 5:26 AM +07 6:36 PM +07
Astronomical Twilight 5:00 AM +07 7:01 PM +07
Moon 8:44 AM +07 (11/6) 8:31 PM +07 (11/6)
Length of Visible Light 12h 18m
Length of Day
11h 34m
Waxing Crescent, 10% of the Moon is Illuminated
Nov 6
Waxing Crescent
Nov 10
First Quarter
Nov 17
Full
Nov 26
Last Quarter
Dec 3
New

Hourly Weather History & Observations

Time (+07) Temp. Heat Index Dew Point Humidity Pressure Visibility Wind Dir Wind Speed Gust Speed Precip Events Conditions
12:00 AM 86.0 °F 90.4 °F 69.8 °F 58% 29.89 in 5.6 mi North 11.5 mph - N/A   Mostly Cloudy
12:30 AM 84.2 °F 88.4 °F 69.8 °F 62% 29.89 in 5.6 mi NNE 11.5 mph - N/A   Mostly Cloudy
1:00 AM 85 °F - 69 °F 51% 29.89 in 6 mi NNE 9.2 mph - -   Haze
1:00 AM 84.2 °F 88.4 °F 69.8 °F 62% 29.89 in 5.6 mi NNE 9.2 mph - N/A   Mostly Cloudy
1:30 AM 84.2 °F 88.4 °F 69.8 °F 62% 29.86 in 5.6 mi North 6.9 mph - N/A   Mostly Cloudy
2:00 AM 84.2 °F 88.4 °F 69.8 °F 62% 29.86 in 5.6 mi North 5.8 mph - N/A   Mostly Cloudy
2:30 AM 82.4 °F 86.3 °F 69.8 °F 66% 29.86 in 5.6 mi NNE 9.2 mph - N/A   Mostly Cloudy
3:00 AM 82.4 °F 86.3 °F 69.8 °F 66% 29.86 in 5.6 mi NNE 5.8 mph - N/A   Mostly Cloudy
3:30 AM 82.4 °F 86.3 °F 69.8 °F 66% 29.83 in 5.6 mi NNE 8.1 mph - N/A   Mostly Cloudy
4:00 AM 82.4 °F 86.3 °F 69.8 °F 66% 29.83 in 5.6 mi North 9.2 mph - N/A   Mostly Cloudy
4:30 AM 82.4 °F 86.3 °F 69.8 °F 66% 29.83 in 5.6 mi NNE 9.2 mph - N/A   Mostly Cloudy
5:00 AM 82.4 °F 86.3 °F 69.8 °F 66% 29.83 in 5.6 mi NNE 8.1 mph - N/A   Mostly Cloudy
5:30 AM 80.6 °F 83.9 °F 69.8 °F 70% 29.86 in 5.6 mi NE 5.8 mph - N/A   Mostly Cloudy
6:00 AM 80.6 °F 83.9 °F 69.8 °F 70% 29.86 in 5.6 mi NNE 8.1 mph - N/A   Mostly Cloudy
6:30 AM 80.6 °F 83.9 °F 69.8 °F 70% 29.86 in 5.6 mi NNE 9.2 mph - N/A   Scattered Clouds
7:00 AM 81 °F - 69 °F 59% 29.89 in 6 mi NNE 9.2 mph - -   Mist
7:00 AM 80.6 °F 83.9 °F 69.8 °F 70% 29.86 in 5.6 mi NNE 9.2 mph - N/A   Scattered Clouds
7:30 AM 82.4 °F 86.3 °F 69.8 °F 66% 29.89 in 5.6 mi NNE 10.4 mph - N/A   Scattered Clouds
8:00 AM 82.4 °F 86.3 °F 69.8 °F 66% 29.89 in 6.2 mi NE 11.5 mph - N/A   Scattered Clouds
8:30 AM 84.2 °F 87.3 °F 68.0 °F 58% 29.89 in 6.2 mi ENE 11.5 mph - N/A   Scattered Clouds
9:00 AM 84.2 °F 87.3 °F 68.0 °F 58% 29.89 in 6.2 mi NNE 10.4 mph - N/A   Scattered Clouds
9:30 AM 87.8 °F 92.6 °F 69.8 °F 55% 29.89 in 6.2 mi NE 13.8 mph - N/A   Mostly Cloudy
10:00 AM 87.8 °F 92.6 °F 69.8 °F 55% 29.89 in 6.2 mi NNE 10.4 mph - N/A   Mostly Cloudy
10:30 AM 87.8 °F 93.8 °F 71.6 °F 58% 29.89 in 6.2 mi ENE 10.4 mph - N/A   Mostly Cloudy
11:00 AM 89.6 °F 94.7 °F 69.8 °F 52% 29.89 in 6.2 mi NNE 10.4 mph - N/A   Mostly Cloudy
11:30 AM 89.6 °F 96.2 °F 71.6 °F 55% 29.89 in 6.2 mi NE 12.7 mph - N/A   Mostly Cloudy
12:00 PM 91.4 °F 98.4 °F 71.6 °F 52% 29.86 in 6.2 mi ENE 5.8 mph - N/A   Mostly Cloudy
12:30 PM 91.4 °F 98.4 °F 71.6 °F 52% 29.86 in 6.2 mi ENE 11.5 mph - N/A   Mostly Cloudy
1:00 PM 92 °F - 70 °F 40% 29.85 in 6 mi NE 11.5 mph - -   Partly Cloudy
1:00 PM 91.4 °F 96.8 °F 69.8 °F 49% 29.83 in 6.2 mi NE 11.5 mph - N/A   Mostly Cloudy
1:30 PM 91.4 °F 96.8 °F 69.8 °F 49% 29.83 in 6.2 mi ENE 10.4 mph - N/A   Mostly Cloudy
2:00 PM 93.2 °F 98.8 °F 69.8 °F 46% 29.80 in 6.2 mi NNE 8.1 mph - N/A   Mostly Cloudy
2:30 PM 93.2 °F 98.8 °F 69.8 °F 46% 29.80 in 6.2 mi NNE 10.4 mph - N/A   Mostly Cloudy
3:00 PM 95.0 °F 101.3 °F 69.8 °F 44% 29.77 in 6.2 mi ENE 12.7 mph - N/A   Mostly Cloudy
3:30 PM 93.2 °F 100.5 °F 71.6 °F 49% 29.77 in 6.2 mi NE 9.2 mph - N/A   Mostly Cloudy
4:00 PM 91.4 °F 96.8 °F 69.8 °F 49% 29.77 in 6.2 mi ENE 15.0 mph - N/A   Mostly Cloudy
4:30 PM 91.4 °F 96.8 °F 69.8 °F 49% 29.77 in 6.2 mi NE 10.4 mph - N/A   Mostly Cloudy
5:00 PM 89.6 °F 96.2 °F 71.6 °F 55% 29.80 in 5.0 mi NE 10.4 mph - N/A Rain Light Rain
5:30 PM 89.6 °F 96.2 °F 71.6 °F 55% 29.80 in 6.2 mi NE 11.5 mph - N/A   Mostly Cloudy
6:00 PM 87.8 °F 92.6 °F 69.8 °F 55% 29.80 in 6.2 mi NNE 12.7 mph - N/A   Mostly Cloudy
6:30 PM 87.8 °F 93.8 °F 71.6 °F 58% 29.83 in 6.2 mi NE 10.4 mph - N/A   Mostly Cloudy
7:00 PM 87 °F - 71 °F 50% 29.84 in 6 mi ENE 9.2 mph - -   Partly Cloudy
7:00 PM 87.8 °F 93.8 °F 71.6 °F 58% 29.83 in 6.2 mi ENE 9.2 mph - N/A   Scattered Clouds
7:30 PM 87.8 °F 93.8 °F 71.6 °F 58% 29.83 in 6.2 mi NNE 16.1 mph - N/A   Mostly Cloudy
8:00 PM 86.0 °F 91.8 °F 71.6 °F 62% 29.86 in 6.2 mi NNE 11.5 mph - N/A   Mostly Cloudy
8:30 PM 86.0 °F 91.8 °F 71.6 °F 62% 29.86 in 6.2 mi NNE 10.4 mph - N/A   Mostly Cloudy
9:00 PM 86.0 °F 91.8 °F 71.6 °F 62% 29.86 in 6.2 mi North 9.2 mph - N/A   Mostly Cloudy
9:30 PM 86.0 °F 91.8 °F 71.6 °F 62% 29.86 in 6.2 mi North 9.2 mph - N/A   Mostly Cloudy
10:00 PM 86.0 °F 91.8 °F 71.6 °F 62% 29.86 in 6.2 mi NNE 8.1 mph - N/A   Mostly Cloudy
10:30 PM 86.0 °F 91.8 °F 71.6 °F 62% 29.86 in 6.2 mi North 5.8 mph - N/A   Mostly Cloudy
11:00 PM 84.2 °F 90.9 °F 73.4 °F 70% 29.86 in 6.2 mi North 6.9 mph - N/A   Mostly Cloudy
11:30 PM 84.2 °F 90.9 °F 73.4 °F 70% 29.86 in 6.2 mi NNE 9.2 mph - N/A   Mostly Cloudy